Location: Dattenbrunn
(48.8884°N, 10.7917°E)
Time: 00:04:54
(UTC+00:00)

Daily predictions for brighter satellites

Satellite Brightness Start Highest point End
(mag) Time Altitude Azimuth Time Altitude Azimuth Time Altitude Azimuth
STARLINK-1105 3.5 00:00:03 10° WNW 00:03:06 55° NNE 00:06:09 10° E
STARLINK-1209 3.1 00:00:16 10° WNW 00:03:25 68° NNE 00:06:35 10° ESE
STARLINK-1247 3.5 00:00:56 10° WNW 00:04:02 56° NNE 00:07:06 10° E
STARLINK-1227 3.5 00:01:25 10° WNW 00:04:29 56° NNE 00:07:32 10° E
ATLAS CENTAUR R/B 2.9 00:02:45 10° NW 00:04:51 32° NNE 00:08:32 10° E
STARLINK-1226 3.5 00:02:16 10° WNW 00:05:21 56° NNE 00:08:25 10° E
STARLINK-1215 3.5 00:03:11 10° WNW 00:06:17 57° NNE 00:09:22 10° E
Nadezhda 2 Rocket 4.4 00:04:33 32° S 00:07:34 83° E 00:13:43 10° N
STARLINK-1217 3.4 00:04:58 10° WNW 00:08:03 58° NNE 00:11:08 10° E
STARLINK-1229 3.4 00:05:53 10° WNW 00:08:59 59° NNE 00:12:05 10° E
STARLINK-1271 4.5 00:05:20 10° WNW 00:09:24 51° N 00:13:27 10° E
STARLINK-1270 3.4 00:06:45 10° WNW 00:09:51 59° NNE 00:12:57 10° E
GEOS 3 Rocket 3.6 00:07:39 28° SSE 00:10:23 66° SW 00:15:40 10° NW
Cosmos 1726 3.7 00:07:42 10° NW 00:10:38 22° W 00:10:54 22° W
STARLINK-1189 3.3 00:08:35 10° WNW 00:11:41 61° NNE 00:14:47 10° E
Cosmos 2058 Rocket 3.1 00:07:35 10° N 00:12:01 81° E 00:13:46 37° SSE
STARLINK-1188 3.3 00:09:28 10° WNW 00:12:34 61° NNE 00:15:41 10° ESE
Meteor 1-29 2.8 00:09:37 10° NNE 00:13:03 85° WNW 00:13:32 63° SSW
STARLINK-1235 3.0 00:10:10 10° WNW 00:13:16 72° NNE 00:16:21 10° ESE
STARLINK-1187 3.1 00:10:35 10° WNW 00:13:40 67° NNE 00:16:46 10° ESE
STARLINK-1154 4.4 00:10:19 10° WNW 00:14:23 52° N 00:18:27 10° E
Cosmos 2228 3.3 00:10:21 10° NNW 00:14:30 51° W 00:15:32 40° SW
COSMOS 2455 2.8 00:11:39 33° SSW 00:14:31 73° ESE 00:20:33 10° NE
STARLINK-1191 3.3 00:11:57 10° WNW 00:15:02 63° NNE 00:18:07 10° ESE
SJ 16-02 3.7 00:12:10 10° N 00:15:41 22° NE 00:19:09 10° ESE
STARLINK-1221 3.2 00:12:49 10° WNW 00:15:55 64° NNE 00:18:59 10° ESE
STARLINK-1222 3.2 00:13:43 10° WNW 00:16:48 64° NNE 00:19:53 10° ESE
STARLINK-1214 3.2 00:14:38 10° WNW 00:17:43 65° NNE 00:20:47 10° ESE
Cosmos 1953 4.1 00:16:04 10° NW 00:18:50 18° W 00:19:26 18° W
STARLINK-1197 4.4 00:15:18 10° WNW 00:19:23 54° NNE 00:23:27 10° E
SL-14 R/B 3.4 00:18:39 42° SSE 00:19:45 65° E 00:23:36 10° NNE
Cosmos 1340 Rocket 4.3 00:17:22 10° NW 00:20:35 23° W 00:21:08 22° WSW
IRAS Rocket 4.2 00:17:53 29° S 00:20:51 78° WSW 00:26:27 10° NNW
Okean 1-7 Rocket 3.5 00:22:03 39° S 00:23:42 86° ESE 00:28:14 10° N
Cosmos 1300 2.7 00:19:58 10° N 00:23:48 78° E 00:25:04 40° SSE
Cosmos 1174 3.2 00:23:33 63° S 00:24:00 78° ESE 00:27:40 10° NE
STARLINK-1198 4.3 00:20:16 10° WNW 00:24:21 55° NNE 00:28:26 10° E
Cosmos 921 Rocket 3.6 00:23:34 31° SSE 00:25:05 44° ESE 00:29:12 10° NNE
BREEZE M DEB (TANK) 2.2 00:26:49 53° ESE 00:26:49 53° ESE 00:29:25 10° ESE
COSMOS 2487 3.4 00:24:22 10° NW 00:27:18 31° W 00:27:18 31° W
STARLINK-1199 4.3 00:25:17 10° WNW 00:29:23 57° NNE 00:33:29 10° E
Cosmos 1626 Rocket 4.3 00:29:36 26° SSE 00:31:37 45° E 00:35:46 10° NNE
Cosmos 2219 3.9 00:27:01 10° NNW 00:32:36 54° NE 00:38:08 10° SE
STARLINK-1210 4.2 00:30:15 10° WNW 00:34:22 59° NNE 00:38:28 10° E
Cosmos 1626 2.0 00:34:31 46° SSW 00:35:32 79° WNW 00:39:16 10° N
STARLINK-60 2.9 00:36:27 59° SSE 00:36:37 60° SSE 00:39:47 10° ENE
Cosmos 1656 Rocket 4.4 00:33:51 20° WSW 00:37:27 45° NW 00:42:50 10° NNE
STARLINK-1219 4.1 00:35:14 10° WNW 00:39:22 61° NNE 00:43:28 10° E
Nadezhda 1 Rocket 4.0 00:35:07 10° N 00:41:18 82° E 00:45:52 20° SSE
FALCON 9 R/B 3.8 00:38:25 25° SSW 00:41:53 35° SSE 00:59:29 10° ESE
STARLINK-1211 4.1 00:40:12 10° WNW 00:44:20 63° NNE 00:48:27 10° E
MOZ.5/SAFIR/RUBIN 5/SL-8 3.7 00:44:16 26° S 00:46:52 84° WSW 00:51:32 10° NNW
UNK 3.8 00:44:00 20° SSE 00:47:09 76° ENE 00:51:46 10° N
Cosmos 220 Rocket 4.4 00:46:16 30° S 00:48:15 57° ESE 00:52:36 10° NNE
Cosmos 2297 Rocket 2.8 00:42:41 10° NNW 00:48:17 58° ENE 00:53:51 10° SE
STARLINK-1245 4.0 00:45:12 10° WNW 00:49:21 66° NNE 00:53:28 10° ESE
Cosmos 1812 Rocket 4.0 00:46:47 10° N 00:51:14 62° ENE 00:54:30 18° SSE
SL-4 R/B 2.3 00:49:12 28° SW 00:51:42 69° SSE 00:56:25 10° ENE
CZ-4B R/B 4.3 00:46:47 10° NNE 00:51:43 45° E 00:55:16 18° SSE
Cosmos 1437 2.4 00:52:48 54° SSW 00:53:22 81° W 00:56:24 10° N
STARLINK-1233 3.9 00:50:11 10° WNW 00:54:19 68° NNE 00:58:27 10° ESE
SL-19 R/B 4.4 00:51:28 10° N 00:56:45 61° WNW 01:00:03 24° SW
ATLAS CENTAUR R/B 1.7 00:56:56 26° WSW 00:59:15 63° NW 01:03:20 10° NE
STARLINK-1204 3.9 00:55:10 10° WNW 00:59:19 71° NNE 01:03:28 10° ESE
Timation 2 Rocket 4.1 00:53:55 10° NW 01:00:07 55° WSW 01:04:30 19° S
SL-16 R/B 2.5 00:56:01 17° SSE 01:00:56 79° WSW 01:07:09 10° NNW
NOSS 3-4 (A) 4.0 00:57:31 16° WSW 01:02:21 55° NW 01:08:45 10° NE
NOSS 3-4 (C) 4.0 00:57:38 16° WSW 01:02:27 55° NW 01:08:51 10° NE
BREEZE-M R/B 3.3 01:01:07 29° SSW 01:02:36 39° SSE 01:05:29 10° E
FALCON 9 DEB 3.9 01:02:08 32° SSE 01:02:46 35° SE 01:05:57 10° ENE
STARLINK-1238 3.8 01:00:07 10° WNW 01:04:17 75° NNE 01:08:26 10° ESE
Cosmos 1602 Rocket 3.6 01:01:58 26° S 01:04:21 77° E 01:08:41 10° NNE
STARLINK-29 3.1 01:04:34 42° SSW 01:05:17 54° SSE 01:08:24 10° ENE
Cosmos 1455 3.0 01:02:33 10° N 01:06:12 48° ENE 01:09:22 13° SSE
ATLAS 3B R/B 3.1 01:01:06 10° NW 01:07:26 43° WSW 01:12:43 16° S
BREEZE-M DEB (TANK) 3.8 01:09:30 15° SE 01:09:30 15° SE 01:10:30 10° ESE
STARLINK-1201 3.7 01:05:08 10° WNW 01:09:18 78° NNE 01:13:26 10° ESE
IRS-1D 4.4 01:05:47 10° NNE 01:10:56 46° E 01:15:17 14° S
CENTAUR R/B 4.1 01:04:27 10° WNW 01:10:58 27° WSW 01:14:47 19° SW
GP-B 3.8 01:08:04 10° N 01:12:26 52° E 01:16:11 14° SSE
Meteor 2-1 Rocket 4.1 01:08:01 10° NNW 01:13:33 79° W 01:18:03 16° S
BREEZE-M DEB (TANK) 0.9 01:12:38 33° WSW 01:13:37 83° SSE 01:15:55 10° E
STARLINK-1206 3.7 01:10:06 10° WNW 01:14:16 82° NNE 01:18:25 10° ESE
Cosmos-2242 3.9 01:11:39 10° N 01:15:49 48° ENE 01:19:56 10° SSE
Cosmos 1745 Rocket 4.0 01:12:46 22° SSW 01:16:52 68° WNW 01:23:00 10° N
STARLINK-1205 3.6 01:15:05 10° WNW 01:19:15 86° NNE 01:23:24 10° ESE
RESURS DK-1 2.7 01:19:17 23° SW 01:21:38 56° NW 01:25:43 10° NNE
Cosmos 2181 Rocket 4.4 01:16:01 10° N 01:22:25 69° ENE 01:28:51 10° SSE
SL-08 R/B 4.4 01:17:59 10° SE 01:22:27 45° ENE 01:26:52 10° N
Cosmos 1356 Rocket 4.0 01:19:55 10° NNW 01:23:48 40° W 01:25:48 24° SSW
Cosmos 2227 Rocket 2.2 01:18:13 10° NNW 01:23:57 87° ENE 01:29:38 10° SSE
STARLINK-1218 3.6 01:20:03 10° WNW 01:24:13 90° SSW 01:28:22 10° ESE
CZ-2D R/B 2.1 01:21:17 10° NNE 01:26:33 74° WNW 01:30:15 20° SSW
Cosmos 2369 Rocket 4.5 01:23:59 10° WNW 01:27:26 16° NW 01:30:54 10° N
Cosmos 1763 Rocket 4.2 01:23:45 14° S 01:27:49 46° ESE 01:32:40 10° NE
Cosmos 1697 Rocket 3.9 01:23:12 11° SSE 01:28:05 34° ESE 01:33:09 10° NE
STARLINK-1254 3.5 01:25:02 10° WNW 01:29:13 86° SSW 01:33:21 10° ESE
ADEOS II 2.7 01:24:07 10° NNE 01:29:15 51° E 01:34:07 11° S
Cosmos 1703 4.0 01:26:48 14° SSE 01:29:57 50° E 01:33:48 10° NNE
ATLAS 2AS CENTAUR R/B 3.8 01:23:52 10° WSW 01:31:34 47° NW 01:39:07 10° NE
CZ-4C R/B 4.4 01:30:46 22° SW 01:32:39 31° W 01:36:32 10° NNW
STARLINK-1231 3.5 01:30:03 10° WNW 01:34:13 81° SSW 01:38:21 10° ESE
STARLINK-1228 3.9 01:32:49 10° W 01:35:44 28° SW 01:38:38 10° SSE
Resurs 1-4 Rocket 2.3 01:31:05 10° N 01:36:18 61° WNW 01:40:11 18° SW
STARLINK-1246 4.5 01:32:16 10° WNW 01:36:20 53° NNE 01:40:25 10° E
STARLINK-1234 3.8 01:34:15 10° W 01:36:57 26° SW 01:37:02 26° SW
STARLINK-1212 3.5 01:35:31 10° WNW 01:38:22 33° SW 01:41:12 10° SSE
STARLINK-1105 3.5 01:36:00 10° WNW 01:38:50 33° SW 01:41:38 10° SSE
STARLINK-1232 3.5 01:35:02 10° WNW 01:39:11 77° SSW 01:43:19 10° ESE
STARLINK-1209 4.1 01:36:34 10° W 01:38:42 23° SW 01:38:42 23° SW
STARLINK-1247 3.5 01:36:54 10° WNW 01:39:45 32° SW 01:42:35 10° SSE
STARLINK-1227 3.5 01:37:22 10° WNW 01:40:11 32° SW 01:43:00 10° SSE
USA 81 4.1 01:36:19 18° SSW 01:40:17 65° W 01:45:33 10° N
STARLINK-1226 3.5 01:38:13 10° WNW 01:41:04 32° SW 01:43:52 10° SSE
STARLINK-1224 4.4 01:37:15 10° WNW 01:41:20 55° NNE 01:45:25 10° E
ARIANE 5 R/B 3.6 01:36:33 10° NNE 01:41:20 40° E 01:46:02 10° SSE
STARLINK-52 2.9 01:39:41 21° WSW 01:41:41 87° SSE 01:44:55 10° ENE
STARLINK-1215 3.6 01:39:10 10° WNW 01:42:00 31° SW 01:44:48 10° SSE
Cosmos 1758 Rocket 3.5 01:39:23 17° S 01:42:43 89° WSW 01:47:08 10° N
NPP 3.8 01:38:23 10° N 01:43:43 62° WNW 01:47:57 16° SSW
STARLINK-1217 3.6 01:40:57 10° W 01:43:45 30° SW 01:46:32 10° SSE
STARLINK-1208 3.5 01:40:00 10° WNW 01:44:08 72° SSW 01:48:15 10° SE
STARLINK-1229 3.6 01:41:53 10° W 01:44:40 30° SW 01:47:27 10° SSE
H-2A R/B 3.6 01:41:10 10° SE 01:45:11 39° ENE 01:49:18 10° N
STARLINK-1270 3.7 01:42:45 10° W 01:45:32 29° SW 01:48:18 10° SSE
STARLINK-1225 4.3 01:42:15 10° WNW 01:46:21 56° NNE 01:50:26 10° E
STARLINK-1189 3.7 01:44:36 10° W 01:47:22 28° SW 01:50:06 10° SSE
STARLINK-1188 3.7 01:45:30 10° W 01:48:14 28° SW 01:50:58 10° SSE
STARLINK-1235 4.0 01:46:19 10° W 01:48:50 22° SW 01:51:20 10° SSE
Cosmos 1898 Rocket 3.5 01:43:44 10° NNW 01:49:04 71° WSW 01:54:21 10° SSE
STARLINK-1271 3.5 01:45:00 10° WNW 01:49:07 68° SSW 01:53:14 10° SE
STARLINK-1187 3.9 01:46:41 10° W 01:49:17 25° SW 01:51:53 10° SSE
STARLINK-1191 3.8 01:48:00 10° W 01:50:41 27° SW 01:53:21 10° SSE
Lacrosse 4 Rocket 2.4 01:46:41 10° NNW 01:50:59 52° NE 01:55:07 10° SE
Starlink 7 placeholder 3.6 01:49:43 12° WNW 01:51:16 28° NNW 01:53:05 10° NE
STARLINK-1230 4.3 01:47:14 10° WNW 01:51:19 58° NNE 01:55:26 10° E
Meteor 1-21 Rocket 4.3 01:46:49 16° SSW 01:51:20 66° WNW 01:57:01 10° N
STARLINK-1221 3.8 01:48:53 10° W 01:51:32 26° SW 01:54:13 10° SSE
STARLINK-1222 3.8 01:49:47 10° W 01:52:26 26° SW 01:55:05 10° SSE
Cosmos 1656 3.7 01:48:20 16° SSW 01:53:03 88° ESE 01:58:43 10° NNE
STARLINK-1214 3.8 01:50:42 10° W 01:53:20 25° SW 01:55:58 10° SSE
STARLINK-1154 3.6 01:50:00 10° WNW 01:54:06 63° SSW 01:58:11 10° SE
SJ 16-02 1.6 01:50:15 10° NNW 01:54:32 50° WSW 01:58:49 10° S
Cosmos 2285 Rocket 4.1 01:48:08 10° NNW 01:54:34 88° ENE 02:00:55 10° SSE
IDEFIX/ARIANE 42P 4.3 01:50:01 10° NNE 01:54:37 30° E 01:59:12 10° SSE
CZ-4C R/B 2.9 01:50:43 12° S 01:55:00 44° ESE 02:00:34 10° NE
Cosmos 2084 3.8 01:52:18 15° SW 01:55:52 65° NW 02:00:20 10° NE
STARLINK-1243 4.2 01:52:13 10° WNW 01:56:20 60° NNE 02:00:26 10° E
Cosmos 468 Rocket 4.0 01:52:22 15° SSW 01:56:41 89° WNW 02:01:51 10° NNE
Cosmos 1953 Rocket 3.7 01:54:38 10° S 01:59:02 77° E 02:03:30 10° NNE
STARLINK-1197 3.6 01:54:58 10° WNW 01:59:03 59° SSW 02:03:08 10° SE
Cosmos 1937 Rocket 3.5 01:54:06 10° NNW 01:59:21 79° WSW 02:04:36 10° SSE
COSMOS 2455 4.2 01:55:45 10° W 02:01:01 30° NW 02:06:19 10° NNE
Meteor 2-10 Rocket 4.0 01:56:12 10° NNW 02:01:16 44° W 02:06:01 11° SSW
STARLINK-1236 4.2 01:57:12 10° WNW 02:01:19 62° NNE 02:05:27 10° E
Cosmos 2369 4.2 01:55:55 10° S 02:01:21 57° ESE 02:06:53 10° NE
STARLINK-1198 3.7 01:59:56 10° WNW 02:04:00 55° SSW 02:08:02 10° SE
Cosmos 1709 Rocket 4.3 02:01:48 13° SSW 02:07:05 51° WNW 02:13:05 10° N
STARLINK-1199 3.7 02:04:58 10° WNW 02:09:00 51° SW 02:13:01 10° SE
Iridium 2 4.4 02:06:58 10° N 02:10:41 55° E 02:14:21 10° SSE
STARLINK-1269 4.0 02:07:08 10° WNW 02:11:17 67° NNE 02:15:25 10° ESE
STARLINK-60 4.0 02:09:46 10° W 02:12:52 43° N 02:15:58 10° ENE
STARLINK-1210 3.8 02:09:56 10° WNW 02:13:57 48° SW 02:17:55 10° SE
STARLINK-1200 4.0 02:12:09 10° WNW 02:16:18 70° NNE 02:20:26 10° ESE
Cosmos 2219 4.1 02:11:42 10° NW 02:16:27 28° WSW 02:21:10 10° SSW
STARLINK-1320 2.9 02:14:52 13° SW 02:17:29 66° SSE 02:20:36 10° ENE
STARLINK-1322 2.9 02:15:11 13° SW 02:17:49 66° SSE 02:20:56 10° ENE
STARLINK-1324 2.9 02:15:32 13° SW 02:18:11 67° SSE 02:21:17 10° ENE
STARLINK-1294 2.9 02:15:47 13° SW 02:18:28 67° SSE 02:21:36 10° ENE
STARLINK-1261 2.9 02:16:09 13° SW 02:18:50 68° SSE 02:21:57 10° ENE
STARLINK-1219 3.9 02:14:56 10° WNW 02:18:53 45° SW 02:22:51 10° SE
STARLINK-1325 2.9 02:16:30 13° SW 02:19:12 68° SSE 02:22:18 10° ENE
STARLINK-1333 2.9 02:16:48 13° SW 02:19:30 68° SSE 02:22:37 10° ENE
STARLINK-1334 2.9 02:17:07 13° SW 02:19:50 69° SSE 02:22:57 10° ENE
STARLINK-1326 2.9 02:17:28 13° SW 02:20:11 69° SSE 02:23:18 10° ENE
Cosmos 1980 Rocket 3.0 02:14:57 10° S 02:20:16 47° ESE 02:25:39 10° NE
STARLINK-1323 2.9 02:17:47 13° SW 02:20:31 70° SSE 02:23:39 10° ENE
STARLINK-1338 3.2 02:17:39 12° SW 02:20:45 66° SSE 02:24:13 10° ENE
STARLINK-1349 2.9 02:18:06 13° SW 02:20:51 70° SSE 02:23:59 10° ENE
STARLINK-1336 2.9 02:18:28 12° SW 02:21:13 70° SSE 02:24:20 10° ENE
STARLINK-1192 3.9 02:17:08 10° WNW 02:21:17 73° NNE 02:25:26 10° ESE
STARLINK-1331 2.9 02:18:45 12° SW 02:21:32 71° SSE 02:24:39 10° ENE
STARLINK-1344 2.9 02:19:05 12° SW 02:21:53 71° SSE 02:24:59 10° ENE
STARLINK-1343 2.9 02:19:25 12° SW 02:22:13 72° SSE 02:25:20 10° ENE
CZ-4B R/B 4.2 02:20:20 10° ESE 02:22:32 18° ENE 02:24:45 10° NNE
STARLINK-1346 2.9 02:19:43 12° SW 02:22:34 72° SSE 02:25:44 10° ENE
STARLINK-1328 2.9 02:20:05 12° SW 02:22:55 72° SSE 02:26:01 10° ENE
Cosmos 1328 4.3 02:19:19 11° SSW 02:22:58 45° WNW 02:26:50 10° N
STARLINK-1354 2.9 02:20:22 12° SW 02:23:13 73° SSE 02:26:20 10° ENE
STARLINK-1347 2.9 02:20:44 12° WSW 02:23:34 73° SSE 02:26:42 10° ENE
STARLINK-1211 4.0 02:19:55 10° WNW 02:23:50 41° SW 02:27:45 10° SE
STARLINK-1357 2.9 02:21:01 12° WSW 02:23:54 74° SSE 02:27:01 10° ENE
STARLINK-1335 2.9 02:21:22 12° WSW 02:24:15 74° SSE 02:27:22 10° ENE
STARLINK-1327 2.9 02:21:41 12° WSW 02:24:34 74° SSE 02:27:41 10° ENE
STARLINK-1371 3.2 02:21:31 11° SW 02:24:47 70° SSE 02:28:17 10° ENE
ERS-2 2.1 02:21:11 10° S 02:24:49 62° WSW 02:28:28 10° NNW
STARLINK-1340 2.9 02:22:01 11° WSW 02:24:55 75° SSE 02:28:03 10° ENE
STARLINK-1356 2.8 02:22:21 11° WSW 02:25:15 75° SSE 02:28:23 10° ENE
STARLINK-1345 2.8 02:22:41 11° WSW 02:25:36 76° SSE 02:28:44 10° ENE
STARLINK-1355 2.9 02:22:59 11° WSW 02:25:56 76° SSE 02:29:03 10° ENE
ERBS 4.0 02:22:58 10° NW 02:26:08 38° NNE 02:29:18 10° E
STARLINK-1244 3.8 02:22:06 10° WNW 02:26:15 77° NNE 02:30:24 10° ESE
STARLINK-1321 2.8 02:23:18 11° WSW 02:26:15 76° SSE 02:29:23 10° ENE
STARLINK-1358 2.8 02:23:39 11° WSW 02:26:37 77° SSE 02:29:45 10° ENE
STARLINK-1341 3.2 02:23:29 11° SW 02:26:50 72° SSE 02:30:20 10° ENE
STARLINK-1332 2.8 02:23:57 11° WSW 02:26:56 77° SSE 02:30:03 10° ENE
STARLINK-1348 2.8 02:24:18 11° WSW 02:27:18 78° SSE 02:30:25 10° ENE
IRS-1C 4.3 02:22:10 10° N 02:27:29 67° WNW 02:32:45 10° SSW
STARLINK-1330 2.8 02:24:36 11° WSW 02:27:37 78° SSE 02:30:45 10° ENE
STARLINK-1363 2.8 02:24:56 11° WSW 02:27:56 78° SSE 02:31:04 10° ENE
STARLINK-1337 2.8 02:25:15 11° WSW 02:28:17 79° SSE 02:31:24 10° ENE
STARLINK-1342 2.8 02:25:35 10° WSW 02:28:38 79° SSE 02:31:45 10° ENE
STARLINK-1245 4.1 02:24:57 10° WNW 02:28:49 39° SW 02:32:40 10° SSE
STARLINK-1374 3.2 02:25:26 10° WSW 02:28:53 74° SSE 02:32:23 10° ENE
STARLINK-1364 2.8 02:25:55 10° WSW 02:28:58 80° SSE 02:32:06 10° ENE
STARLINK-1376 2.8 02:26:15 10° WSW 02:29:20 80° SSE 02:32:27 10° ENE
STARLINK-1360 2.8 02:26:30 10° WSW 02:29:35 80° SSE 02:32:43 10° ENE
STARLINK-1361 2.8 02:26:56 10° WSW 02:30:01 81° SSE 02:33:10 10° ENE
STARLINK-1367 2.9 02:27:10 10° WSW 02:30:18 81° SSE 02:33:28 10° ENE
STARLINK-1366 2.8 02:27:33 10° WSW 02:30:40 82° SSE 02:33:48 10° ENE
STARLINK-1339 3.2 02:27:28 10° WSW 02:30:58 76° SSE 02:34:28 10° ENE
STARLINK-1138 3.8 02:27:04 10° WNW 02:31:14 81° NNE 02:35:23 10° ESE
SL-4 R/B 2.8 02:26:48 10° W 02:31:35 64° N 02:36:09 10° ENE
Cosmos 2297 Rocket 3.2 02:27:20 10° NW 02:31:58 27° WSW 02:36:34 10° SSW
STARLINK-1377 3.2 02:29:34 10° WSW 02:33:03 79° SSE 02:36:35 10° ENE
STARLINK-1233 4.2 02:29:57 10° WNW 02:33:45 36° SW 02:37:33 10° SSE
STARLINK-1203 3.8 02:29:53 10° WNW 02:34:07 84° NNE 02:38:20 10° ESE
STARLINK-1353 3.1 02:31:27 10° WSW 02:34:55 81° SSE 02:38:24 10° ENE
Cosmos 2082 4.0 02:30:33 10° NW 02:35:57 46° WSW 02:41:17 10° S
STARLINK-1143 3.7 02:32:03 10° WNW 02:36:13 84° NNE 02:40:23 10° ESE
STARLINK-1375 3.1 02:33:17 10° WSW 02:36:46 83° SSE 02:40:16 10° ENE
Cosmos 540 Rocket 3.5 02:33:14 10° SSW 02:38:23 90° SE 02:43:34 10° NNE
STARLINK-1204 4.3 02:34:58 10° WNW 02:38:43 33° SW 02:42:27 10° SSE
ATLAS CENTAUR R/B 3.7 02:36:15 10° WNW 02:38:52 16° NNW 02:41:23 10° N
STARLINK-1350 3.1 02:35:41 10° WSW 02:39:10 85° SSE 02:42:40 10° ENE
FALCON 9 DEB 3.6 02:36:17 10° W 02:39:42 59° NNW 02:43:09 10° ENE
STARLINK-1241 3.7 02:37:02 10° WNW 02:41:12 89° NNE 02:45:21 10° ESE
Cosmos 1455 4.1 02:39:22 10° NW 02:41:24 14° W 02:43:26 10° WSW
STARLINK-29 3.9 02:38:24 10° W 02:41:30 45° NNW 02:44:35 10° ENE
STARLINK-1352 3.2 02:38:04 10° WSW 02:41:36 88° SE 02:45:08 10° ENE
Landsat 5 3.7 02:37:12 10° SSE 02:41:42 80° WSW 02:46:16 10° NNW
CZ-2D R/B 3.5 02:37:48 10° NNE 02:41:55 81° WNW 02:46:06 10° SSW
Cosmos 2278 3.8 02:37:14 10° SSW 02:42:52 82° ESE 02:48:33 10° NNE
USA 234 4.1 02:37:04 10° ENE 02:43:13 42° SE 02:49:21 10° SSW
STARLINK-1238 4.4 02:39:57 10° WNW 02:43:38 31° SW 02:47:18 10° SSE
STARLINK-1368 3.2 02:40:15 10° WSW 02:43:46 90° NNW 02:47:19 10° ENE
Meteor 1-28 Rocket 3.7 02:41:10 10° S 02:44:45 40° W 02:48:20 10° NNW
Meteor 1-11 4.4 02:39:23 10° SSW 02:44:58 61° WNW 02:50:32 10° N
SL-16 R/B 4.2 02:42:18 10° WSW 02:45:33 15° W 02:48:48 10° NW
STARLINK-1239 3.6 02:42:01 10° WNW 02:46:11 87° SSW 02:50:20 10° ESE
Cosmos 2074 Rocket 4.2 02:42:08 10° SSW 02:48:21 62° WNW 02:54:37 10° N
